Date String (YYYY-MM-DD hh:mm:ss) UTC,Instrument flags,Ambient pressure (hPa),Sample flow (lpm),Bypass flow (lpm),Sample temperature (°C),Ambient temperature (°C),ASC tube jacket temperature (°C),LED temperature (°C),Box temperature (°C),Sample RH (%),Span deviation,Mass concentration (μg/m³),Mass concentration (μg/m³),Mass concentration (μg/m³)
DateTimeUTC,F1_M11,P_M11,Q1_M11,Q2_M11,T1_M11,T2_M11,T3_M11,T4_M11,T5_M11,U1_M11,ZSPAN_M11,X0_M11,X2_M11,X1_M11
2022-09-06 05:00:00,,0828.3,5.01,0.00,29.7,28.7,00.0,38.3,31.6,17.7,0000.0,0015.64,0007.99,0006.86
2022-09-06 05:01:00,,0828.3,5.00,0.00,29.7,28.8,00.0,38.4,31.7,17.6,0000.0,0015.40,0007.91,0006.83
2022-09-06 05:02:00,,0828.3,5.00,0.00,29.8,28.9,00.0,38.4,31.7,17.2,0000.0,0015.19,0007.84,0006.80
2022-09-06 05:03:00,,0828.3,4.99,0.00,29.8,28.6,00.0,38.4,31.7,17.1,0000.0,0015.88,0007.84,0006.76
2022-09-06 05:04:00,,0828.3,5.01,0.00,29.8,27.2,00.0,38.4,31.6,17.1,0000.0,0016.38,0007.84,0006.75
2022-09-06 05:05:00,,0828.3,4.99,0.00,29.7,26.8,00.0,38.4,31.5,17.2,0000.0,0016.90,0007.76,0006.71
2022-09-06 05:06:00,,0828.3,5.00,0.00,29.7,27.0,00.0,38.4,31.4,17.1,0000.0,0016.99,0007.76,0006.69
2022-09-06 05:07:00,,0828.3,4.99,0.00,29.6,27.3,00.0,38.3,31.4,17.0,0000.0,0017.97,0007.69,0006.67
2022-09-06 05:08:00,,0828.3,5.02,0.00,29.6,27.6,00.0,38.3,31.4,16.9,0000.0,0019.47,0007.71,0006.66
2022-09-06 05:09:00,,0828.3,5.00,0.00,29.6,27.9,00.0,38.3,31.4,16.8,0000.0,0020.49,0007.75,0006.65
2022-09-06 05:10:00,,0828.3,4.98,0.00,29.6,28.1,00.0,38.4,31.5,16.7,0000.0,0021.16,0007.77,0006.63
2022-09-06 05:11:00,,0828.3,5.00,0.00,29.7,28.3,00.0,38.4,31.5,16.8,0000.0,0020.95,0007.77,0006.64
2022-09-06 05:12:00,,0828.3,5.00,0.00,29.7,28.5,00.0,38.4,31.6,16.8,0000.0,0020.71,0007.75,0006.62
2022-09-06 05:13:00,,0828.3,5.00,0.00,29.7,28.6,00.0,38.4,31.6,16.7,0000.0,0020.90,0007.73,0006.60
2022-09-06 05:14:00,,0828.3,5.01,0.00,29.7,28.7,00.0,38.4,31.7,16.7,0000.0,0020.09,0007.69,0006.59
2022-09-06 05:15:00,,0828.3,5.00,0.00,29.8,28.8,00.0,38.4,31.7,16.6,0000.0,0020.06,0007.69,0006.58
2022-09-06 05:16:00,,0828.3,5.00,0.00,29.8,28.9,00.0,38.5,31.8,16.8,0000.0,0019.18,0007.70,0006.57
2022-09-06 05:17:00,,0828.3,5.00,0.00,29.9,28.9,00.0,38.5,31.8,16.6,0000.0,0019.11,0007.63,0006.54
2022-09-06 05:18:00,,0828.3,4.98,0.00,29.9,28.6,00.0,38.5,31.8,16.3,0000.0,0018.64,0007.65,0006.52
2022-09-06 05:19:00,,0828.3,5.01,0.00,29.9,27.3,00.0,38.5,31.7,16.2,0000.0,0018.28,0007.65,0006.51
2022-09-06 05:20:00,,0828.3,4.99,0.00,29.8,27.0,00.0,38.5,31.7,16.2,0000.0,0017.24,0007.61,0006.51
2022-09-06 05:21:00,,0828.3,5.00,0.00,29.8,27.2,00.0,38.5,31.5,16.4,0000.0,0016.12,0007.55,0006.50
2022-09-06 05:22:00,,0828.3,4.98,0.00,29.7,27.5,00.0,38.4,31.5,16.6,0000.0,0016.11,0007.53,0006.49
2022-09-06 05:23:00,,0828.3,5.00,0.00,29.7,27.8,00.0,38.4,31.5,16.3,0000.0,0015.93,0007.50,0006.47
2022-09-06 05:24:00,,0828.2,5.00,0.00,29.7,28.0,00.0,38.4,31.5,16.2,0000.0,0016.20,0007.51,0006.46
2022-09-06 05:25:00,,0828.3,5.01,0.00,29.7,28.2,00.0,38.4,31.6,16.3,0000.0,0016.75,0007.52,0006.45
2022-09-06 05:26:00,,0828.3,5.01,0.00,29.8,28.4,00.0,38.5,31.6,16.1,0000.0,0017.15,0007.47,0006.42
2022-09-06 05:27:00,,0828.3,4.99,0.00,29.8,28.5,00.0,38.5,31.7,16.0,0000.0,0017.53,0007.41,0006.38
2022-09-06 05:28:00,,0828.3,5.00,0.00,29.8,28.7,00.0,38.5,31.7,16.0,0000.0,0017.29,0007.39,0006.37
2022-09-06 05:29:00,,0828.3,5.01,0.00,29.8,28.8,00.0,38.5,31.7,16.1,0000.0,0016.75,0007.40,0006.35
2022-09-06 05:30:00,,0828.3,4.98,0.00,29.9,28.9,00.0,38.5,31.8,16.0,0000.0,0016.58,0007.39,0006.34
2022-09-06 05:31:00,,0828.3,5.01,0.00,29.9,28.9,00.0,38.6,31.8,15.9,0000.0,0016.96,0007.40,0006.31
2022-09-06 05:32:00,,0828.3,5.00,0.00,29.9,28.4,00.0,38.6,31.8,15.9,0000.0,0017.78,0007.42,0006.29
2022-09-06 05:33:00,,0828.3,4.98,0.00,29.9,27.2,00.0,38.6,31.6,15.9,0000.0,0018.71,0007.43,0006.28
2022-09-06 05:34:00,,0828.3,5.01,0.00,29.8,27.1,00.0,38.5,31.6,15.9,0000.0,0019.09,0007.42,0006.27
2022-09-06 05:35:00,,0828.3,5.00,0.00,29.8,27.2,00.0,38.5,31.5,15.9,0000.0,0019.29,0007.40,0006.27
2022-09-06 05:36:00,,0828.4,5.01,0.00,29.7,27.5,00.0,38.5,31.5,15.9,0000.0,0018.67,0007.35,0006.26
2022-09-06 05:37:00,,0828.3,5.00,0.00,29.7,27.8,00.0,38.5,31.5,15.9,0000.0,0017.75,0007.35,0006.26
2022-09-06 05:38:00,,0828.4,5.00,0.00,29.7,28.0,00.0,38.5,31.5,15.9,0000.0,0017.44,0007.42,0006.26
2022-09-06 05:39:00,,0828.4,5.01,0.00,29.7,28.3,00.0,38.5,31.6,15.9,0000.0,0017.32,0007.42,0006.26
2022-09-06 05:40:00,,0828.4,4.99,0.00,29.8,28.4,00.0,38.5,31.6,16.0,0000.0,0017.19,0007.42,0006.26
2022-09-06 05:41:00,,0828.5,5.00,0.00,29.8,28.6,00.0,38.5,31.7,16.0,0000.0,0016.16,0007.43,0006.25
2022-09-06 05:42:00,,0828.4,5.00,0.00,29.8,28.7,00.0,38.5,31.7,16.1,0000.0,0015.61,0007.38,0006.26
2022-09-06 05:43:00,,0828.5,5.00,0.00,29.9,28.8,00.0,38.5,31.7,16.0,0000.0,0015.13,0007.34,0006.26
2022-09-06 05:44:00,,0828.5,4.99,0.00,29.9,28.9,00.0,38.6,31.8,16.1,0000.0,0014.71,0007.29,0006.27
2022-09-06 05:45:00,,0828.5,5.02,0.00,29.9,29.0,00.0,38.6,31.8,16.0,0000.0,0014.40,0007.31,0006.27
2022-09-06 05:46:00,,0828.4,4.99,0.00,30.0,28.9,00.0,38.6,31.9,16.1,0000.0,0013.73,0007.39,0006.28
2022-09-06 05:47:00,,0828.4,5.01,0.00,29.9,27.6,00.0,38.6,31.8,15.9,0000.0,0014.01,0007.44,0006.30
2022-09-06 05:48:00,,0828.4,5.00,0.00,29.9,27.0,00.0,38.6,31.7,15.8,0000.0,0014.29,0007.45,0006.30
2022-09-06 05:49:00,,0828.4,5.00,0.00,29.9,27.1,00.0,38.5,31.7,15.8,0000.0,0014.20,0007.39,0006.30
2022-09-06 05:50:00,,0828.4,5.00,0.00,29.8,27.4,00.0,38.5,31.5,15.9,0000.0,0014.13,0007.36,0006.30
2022-09-06 05:51:00,,0828.4,4.99,0.00,29.8,27.7,00.0,38.5,31.5,15.9,0000.0,0013.75,0007.32,0006.30
2022-09-06 05:52:00,,0828.4,4.99,0.00,29.8,28.0,00.0,38.5,31.6,15.9,0000.0,0013.50,0007.26,0006.29
2022-09-06 05:53:00,,0828.4,5.00,0.00,29.8,28.2,00.0,38.5,31.6,15.9,0000.0,0014.86,0007.28,0006.28
2022-09-06 05:54:00,,0828.5,5.01,0.00,29.8,28.4,00.0,38.5,31.6,15.9,0000.0,0014.52,0007.30,0006.28
2022-09-06 05:55:00,,0828.5,5.01,0.00,29.8,28.5,00.0,38.5,31.7,15.9,0000.0,0014.55,0007.29,0006.27
2022-09-06 05:56:00,,0828.5,4.99,0.00,29.8,28.6,00.0,38.5,31.7,15.9,0000.0,0014.87,0007.29,0006.26
2022-09-06 05:57:00,,0828.5,5.01,0.00,29.9,28.7,00.0,38.6,31.8,15.9,0000.0,0014.59,0007.19,0006.25
2022-09-06 05:58:00,,0828.5,4.99,0.00,29.9,28.8,00.0,38.6,31.8,15.9,0000.0,0014.34,0007.14,0006.24
2022-09-06 05:59:00,,0828.4,5.01,0.00,29.9,28.9,00.0,38.6,31.8,15.8,0000.0,0014.68,0007.13,0006.25
